Tracking 18980 objects as of 22-Feb-2018
HD Live streaming from Space Station
objects crossing your sky now

GALS 2

Track GALS 2 now!
GALS 2 is classified as:


NORAD ID: 23717
Int'l Code: 1995-063A
Perigee: 35,854.0 km
Apogee: 35,954.4 km
Inclination: 13.2 °
Period: 1,441.7 minutes
Semi major axis: 42275 km
RCS: 8.9125 m2 (large)
Launch date: November 17, 1995
Source: Commonwealth of Independent States (former USSR) (CIS)
Launch site: TYURATAM MISSILE AND SPACE COMPLEX (TTMTR)
aabbcc
Your satellite tracking list
Your tracking list is empty




NASA's NSSDC Master Catalog

Two Line Element Set (TLE):
1 23717U 95063A   18052.88170932 -.00000161 +00000-0 +00000-0 0  9996
2 23717 013.2162 026.8894 0011884 275.7510 078.7554 00.99879086081284
Source of the keplerian elements: AFSPC